Location: Eindhoven
(51.4416°N, 5.4697°E)
Time: 00:16:52
(UTC+01:00)

deb Explorer IX - Pass Details

Date: 19 November 2019
Orbit: 545 x 1105 km, 38.8° (Epoch: 08 December)

Event Time Altitude Azimuth Distance (km) Brightness Sun altitude
Rises 01:26:09 0° 212° (SSW) 3,703 - -55.6°
Reaches altitude 10° 01:30:13 10° 190° (S) 2,642 - -55.3°
Maximum altitude 01:33:27 15° 159° (SSE) 2,231 - -55.1°
Drops below altitude 10° 01:36:30 10° 127° (SE) 2,439 - -54.8°
Sets 01:39:59 0° 104° (ESE) 3,244 - -54.5°
